Time,TemperatureF,DewpointF,PressureIn,WindDirection,WindDirectionDegrees,WindSpeedMPH,WindSpeedGustMPH,Humidity,HourlyPrecipIn,Conditions,Clouds,dailyrainin,SolarRadiationWatts/m^2,SoftwareType,DateUTC
2013-06-14 00:02:00,59.0,38.0,-100.00,SSE,159,7.0,10.0,45,0.00,,,-99.99,0.000000,,2013-06-14 06:02:00,
2013-06-14 00:12:00,59.0,36.0,-100.00,South,180,6.0,8.0,42,0.00,,,-99.99,0.000000,,2013-06-14 06:12:00,
2013-06-14 00:22:00,59.0,36.0,-100.00,South,180,6.0,8.0,42,0.00,,,-99.99,0.000000,,2013-06-14 06:22:00,
2013-06-14 00:33:00,59.0,36.0,-100.00,South,180,6.0,8.0,42,0.00,,,-99.99,0.000000,,2013-06-14 06:33:00,
2013-06-14 00:43:00,59.0,36.0,-100.00,South,180,6.0,8.0,42,0.00,,,-99.99,0.000000,,2013-06-14 06:43:00,
2013-06-14 01:33:00,57.0,34.0,-100.00,SSE,161,6.0,8.0,43,0.00,,,-99.99,0.000000,,2013-06-14 07:33:00,
2013-06-14 01:43:00,55.0,34.0,-100.00,SSE,167,6.0,9.0,44,0.00,,,-99.99,0.000000,,2013-06-14 07:43:00,
2013-06-14 01:53:00,55.0,34.0,-100.00,SSE,167,6.0,9.0,44,0.00,,,-99.99,0.000000,,2013-06-14 07:53:00,
2013-06-14 02:01:00,55.0,33.0,-100.00,SSE,157,7.0,9.0,43,0.00,,,-99.99,0.000000,,2013-06-14 08:01:00,
2013-06-14 02:12:00,55.0,34.0,-100.00,SSE,158,6.0,9.0,45,0.00,,,-99.99,0.000000,,2013-06-14 08:12:00,
2013-06-14 02:22:00,55.0,32.0,-100.00,SSE,155,7.0,9.0,42,0.00,,,-99.99,0.000000,,2013-06-14 08:22:00,
2013-06-14 02:33:00,55.0,32.0,-100.00,SSE,157,7.0,9.0,42,0.00,,,-99.99,0.000000,,2013-06-14 08:33:00,
2013-06-14 02:43:00,55.0,33.0,-100.00,SSE,158,7.0,9.0,42,0.00,,,-99.99,0.000000,,2013-06-14 08:43:00,
2013-06-14 02:53:00,55.0,33.0,-100.00,SSE,158,7.0,9.0,42,0.00,,,-99.99,0.000000,,2013-06-14 08:53:00,
2013-06-14 03:01:00,55.0,32.0,-100.00,SSE,164,5.0,8.0,41,0.00,,,-99.99,0.000000,,2013-06-14 09:01:00,
2013-06-14 03:11:00,55.0,32.0,-100.00,SSE,164,5.0,8.0,41,0.00,,,-99.99,0.000000,,2013-06-14 09:11:00,
2013-06-14 03:22:00,54.0,32.0,-100.00,SSE,166,5.0,7.0,43,0.00,,,-99.99,0.000000,,2013-06-14 09:22:00,
2013-06-14 03:33:00,55.0,33.0,-100.00,South,185,4.0,6.0,44,0.00,,,-99.99,0.000000,,2013-06-14 09:33:00,
2013-06-14 03:43:00,53.0,35.0,-100.00,SSW,197,5.0,7.0,50,0.00,,,-99.99,0.000000,,2013-06-14 09:43:00,
2013-06-14 03:52:00,53.0,35.0,-100.00,SSW,197,5.0,7.0,50,0.00,,,-99.99,0.000000,,2013-06-14 09:52:00,
2013-06-14 04:01:00,52.0,36.0,-100.00,South,188,4.0,6.0,53,0.00,,,-99.99,0.000000,,2013-06-14 10:01:00,
2013-06-14 04:11:00,52.0,36.0,-100.00,South,188,4.0,6.0,53,0.00,,,-99.99,0.000000,,2013-06-14 10:11:00,
2013-06-14 04:22:00,55.0,39.0,-100.00,WSW,248,2.0,4.0,55,0.00,,,-99.99,0.000000,,2013-06-14 10:22:00,
2013-06-14 04:34:00,55.0,39.0,-100.00,WSW,248,2.0,4.0,55,0.00,,,-99.99,0.000000,,2013-06-14 10:34:00,
2013-06-14 04:43:00,52.0,41.0,-100.00,South,191,3.0,5.0,67,0.00,,,-99.99,0.000000,,2013-06-14 10:43:00,
2013-06-14 04:50:00,51.0,38.0,-100.00,SSE,157,5.0,8.0,62,0.00,,,-99.99,0.000000,,2013-06-14 10:50:00,
2013-06-14 04:52:00,50.0,41.0,-100.00,South,183,4.0,5.0,72,0.00,,,-99.99,0.000000,,2013-06-14 10:52:00,
2013-06-14 05:02:00,50.0,39.0,-100.00,South,174,5.0,7.0,66,0.00,,,-99.99,0.000000,,2013-06-14 11:02:00,
2013-06-14 05:11:00,50.0,39.0,-100.00,South,174,5.0,7.0,66,0.00,,,-99.99,0.000000,,2013-06-14 11:11:00,
2013-06-14 05:22:00,51.0,38.0,-100.00,SSE,157,5.0,8.0,62,0.00,,,-99.99,0.000000,,2013-06-14 11:22:00,
2013-06-14 05:32:00,51.0,38.0,-100.00,SSE,157,5.0,8.0,62,0.00,,,-99.99,0.000000,,2013-06-14 11:32:00,
2013-06-14 05:43:00,51.0,38.0,-100.00,SSE,157,5.0,8.0,62,0.00,,,-99.99,0.000000,,2013-06-14 11:43:00,
2013-06-14 06:33:00,48.0,39.0,-100.00,South,183,4.0,6.0,70,0.00,,,-99.99,6.000000,,2013-06-14 12:33:00,
2013-06-14 06:43:00,48.0,40.0,-100.00,SSE,155,4.0,6.0,72,0.00,,,-99.99,17.000000,,2013-06-14 12:43:00,
2013-06-14 06:52:00,48.0,40.0,-100.00,SSE,155,4.0,6.0,72,0.00,,,-99.99,17.000000,,2013-06-14 12:52:00,
2013-06-14 07:01:00,51.0,39.0,-100.00,SSE,158,5.0,9.0,62,0.00,,,-99.99,23.000000,,2013-06-14 13:01:00,
2013-06-14 07:11:00,51.0,38.0,-100.00,SE,142,5.0,8.0,62,0.00,,,-99.99,79.000000,,2013-06-14 13:11:00,
2013-06-14 07:22:00,52.0,39.0,-100.00,South,175,5.0,7.0,61,0.00,,,-99.99,133.000000,,2013-06-14 13:22:00,
2013-06-14 07:33:00,52.0,39.0,-100.00,South,175,5.0,7.0,61,0.00,,,-99.99,133.000000,,2013-06-14 13:33:00,
2013-06-14 07:43:00,56.0,40.0,-100.00,SSE,151,2.0,4.0,56,0.00,,,-99.99,162.000000,,2013-06-14 13:43:00,
2013-06-14 07:52:00,57.0,40.0,-100.00,SSE,149,3.0,4.0,53,0.00,,,-99.99,191.000000,,2013-06-14 13:52:00,
2013-06-14 08:02:00,59.0,38.0,-100.00,SE,132,3.0,4.0,47,0.00,,,-99.99,222.000000,,2013-06-14 14:02:00,
2013-06-14 08:22:00,59.0,41.0,-100.00,SSE,151,4.0,6.0,52,0.00,,,-99.99,318.000000,,2013-06-14 14:22:00,
2013-06-14 08:33:00,59.0,41.0,-100.00,SSE,151,4.0,6.0,52,0.00,,,-99.99,318.000000,,2013-06-14 14:33:00,
2013-06-14 08:43:00,59.0,38.0,-100.00,WSW,242,3.0,7.0,46,0.00,,,-99.99,384.000000,,2013-06-14 14:43:00,
2013-06-14 08:52:00,59.0,38.0,-100.00,WSW,242,3.0,7.0,46,0.00,,,-99.99,384.000000,,2013-06-14 14:52:00,
2013-06-14 09:01:00,61.0,38.0,-100.00,NE,52,3.0,5.0,42,0.00,,,-99.99,415.000000,,2013-06-14 15:01:00,
2013-06-14 09:11:00,61.0,36.0,-100.00,ENE,77,4.0,8.0,40,0.00,,,-99.99,481.000000,,2013-06-14 15:11:00,
2013-06-14 09:22:00,61.0,39.0,-100.00,South,177,3.0,7.0,44,0.00,,,-99.99,512.000000,,2013-06-14 15:22:00,
2013-06-14 09:33:00,62.0,38.0,-100.00,WSW,250,4.0,9.0,41,0.00,,,-99.99,544.000000,,2013-06-14 15:33:00,
2013-06-14 09:43:00,63.0,39.0,-100.00,East,83,4.0,8.0,41,0.00,,,-99.99,575.000000,,2013-06-14 15:43:00,
2013-06-14 09:50:00,62.0,37.0,-100.00,West,260,7.0,11.0,40,0.00,,,-99.99,664.000000,,2013-06-14 15:50:00,
2013-06-14 09:52:00,63.0,39.0,-100.00,East,83,4.0,8.0,41,0.00,,,-99.99,575.000000,,2013-06-14 15:52:00,
2013-06-14 10:01:00,62.0,35.0,-100.00,ENE,63,5.0,8.0,36,0.00,,,-99.99,606.000000,,2013-06-14 16:01:00,
2013-06-14 10:11:00,62.0,38.0,-100.00,SE,134,6.0,9.0,41,0.00,,,-99.99,635.000000,,2013-06-14 16:11:00,
2013-06-14 10:22:00,62.0,37.0,-100.00,West,260,7.0,11.0,40,0.00,,,-99.99,664.000000,,2013-06-14 16:22:00,
2013-06-14 10:32:00,62.0,37.0,-100.00,West,260,7.0,11.0,40,0.00,,,-99.99,664.000000,,2013-06-14 16:32:00,
2013-06-14 10:43:00,62.0,37.0,-100.00,West,260,7.0,11.0,40,0.00,,,-99.99,664.000000,,2013-06-14 16:43:00,
2013-06-14 11:23:00,64.0,40.0,-100.00,South,182,5.0,9.0,41,0.00,,,-99.99,836.000000,,2013-06-14 17:23:00,
2013-06-14 11:34:00,65.0,38.0,-100.00,West,277,5.0,9.0,38,0.00,,,-99.99,857.000000,,2013-06-14 17:34:00,
2013-06-14 11:43:00,65.0,41.0,-100.00,WNW,289,5.0,8.0,42,0.00,,,-99.99,877.000000,,2013-06-14 17:43:00,
2013-06-14 11:53:00,65.0,41.0,-100.00,WNW,289,5.0,8.0,42,0.00,,,-99.99,877.000000,,2013-06-14 17:53:00,
2013-06-14 12:02:00,65.0,44.0,-100.00,SW,217,5.0,9.0,45,0.00,,,-99.99,895.000000,,2013-06-14 18:02:00,
2013-06-14 12:11:00,66.0,42.0,-100.00,West,280,5.0,8.0,42,0.00,,,-99.99,907.000000,,2013-06-14 18:11:00,
2013-06-14 12:21:00,67.0,43.0,-100.00,WNW,286,5.0,8.0,42,0.00,,,-99.99,936.000000,,2013-06-14 18:21:00,
2013-06-14 12:32:00,67.0,43.0,-100.00,WNW,286,5.0,8.0,42,0.00,,,-99.99,936.000000,,2013-06-14 18:32:00,
2013-06-14 12:42:00,66.0,40.0,-100.00,West,259,4.0,9.0,38,0.00,,,-99.99,958.000000,,2013-06-14 18:42:00,
2013-06-14 12:52:00,66.0,40.0,-100.00,West,259,4.0,9.0,38,0.00,,,-99.99,958.000000,,2013-06-14 18:52:00,
2013-06-14 13:01:00,68.0,44.0,-100.00,West,261,4.0,7.0,42,0.00,,,-99.99,967.000000,,2013-06-14 19:01:00,
2013-06-14 13:11:00,67.0,37.0,-100.00,West,264,5.0,9.0,33,0.00,,,-99.99,975.000000,,2013-06-14 19:11:00,
2013-06-14 13:21:00,67.0,39.0,-100.00,WSW,248,4.0,7.0,35,0.00,,,-99.99,978.000000,,2013-06-14 19:21:00,
2013-06-14 13:32:00,67.0,36.0,-100.00,SE,138,5.0,9.0,32,0.00,,,-99.99,985.000000,,2013-06-14 19:32:00,
2013-06-14 13:43:00,69.0,40.0,-100.00,ENE,61,4.0,7.0,35,0.00,,,-99.99,989.000000,,2013-06-14 19:43:00,
2013-06-14 13:53:00,69.0,40.0,-100.00,ENE,61,4.0,7.0,35,0.00,,,-99.99,989.000000,,2013-06-14 19:53:00,
2013-06-14 14:01:00,68.0,39.0,-100.00,SW,228,4.0,10.0,35,0.00,,,-99.99,989.000000,,2013-06-14 20:01:00,
2013-06-14 14:11:00,69.0,43.0,-100.00,WNW,290,5.0,9.0,39,0.00,,,-99.99,986.000000,,2013-06-14 20:11:00,
2013-06-14 14:21:00,70.0,38.0,-100.00,WSW,241,5.0,9.0,32,0.00,,,-99.99,977.000000,,2013-06-14 20:21:00,
2013-06-14 14:33:00,70.0,33.0,-100.00,SSE,155,5.0,9.0,26,0.00,,,-99.99,974.000000,,2013-06-14 20:33:00,
2013-06-14 14:43:00,70.0,38.0,-100.00,SW,214,4.0,9.0,31,0.00,,,-99.99,965.000000,,2013-06-14 20:43:00,
2013-06-14 14:50:00,71.0,39.0,-100.00,SSE,153,4.0,7.0,31,0.00,,,-99.99,935.000000,,2013-06-14 20:50:00,
2013-06-14 14:53:00,70.0,38.0,-100.00,SW,214,4.0,9.0,31,0.00,,,-99.99,965.000000,,2013-06-14 20:53:00,
2013-06-14 15:01:00,71.0,38.0,-100.00,East,83,5.0,9.0,31,0.00,,,-99.99,946.000000,,2013-06-14 21:01:00,
2013-06-14 15:11:00,71.0,39.0,-100.00,SSE,153,4.0,7.0,31,0.00,,,-99.99,935.000000,,2013-06-14 21:11:00,
2013-06-14 15:22:00,71.0,39.0,-100.00,SSE,153,4.0,7.0,31,0.00,,,-99.99,935.000000,,2013-06-14 21:22:00,
2013-06-14 15:34:00,71.0,39.0,-100.00,SSE,153,4.0,7.0,31,0.00,,,-99.99,935.000000,,2013-06-14 21:34:00,
2013-06-14 15:42:00,71.0,39.0,-100.00,SSE,153,4.0,7.0,31,0.00,,,-99.99,935.000000,,2013-06-14 21:42:00,
2013-06-14 16:33:00,73.0,35.0,-100.00,SSE,152,4.0,9.0,25,0.00,,,-99.99,796.000000,,2013-06-14 22:33:00,
2013-06-14 16:43:00,74.0,36.0,-100.00,SW,233,5.0,10.0,25,0.00,,,-99.99,601.000000,,2013-06-14 22:43:00,
2013-06-14 16:53:00,74.0,36.0,-100.00,SW,233,5.0,10.0,25,0.00,,,-99.99,601.000000,,2013-06-14 22:53:00,
2013-06-14 17:01:00,72.0,38.0,-100.00,SSE,167,6.0,10.0,29,0.00,,,-99.99,682.000000,,2013-06-14 23:01:00,
2013-06-14 17:11:00,71.0,36.0,-100.00,West,274,6.0,10.0,28,0.00,,,-99.99,642.000000,,2013-06-14 23:11:00,
2013-06-14 17:22:00,72.0,39.0,-100.00,WNW,302,8.0,13.0,30,0.00,,,-99.99,774.000000,,2013-06-14 23:22:00,
2013-06-14 17:33:00,72.0,40.0,-100.00,WNW,301,8.0,12.0,31,0.00,,,-99.99,681.000000,,2013-06-14 23:33:00,
2013-06-14 17:43:00,72.0,38.0,-100.00,NW,311,7.0,11.0,29,0.00,,,-99.99,600.000000,,2013-06-14 23:43:00,
2013-06-14 17:52:00,72.0,38.0,-100.00,NW,311,7.0,11.0,29,0.00,,,-99.99,600.000000,,2013-06-14 23:52:00,
2013-06-14 18:01:00,71.0,34.0,-100.00,SW,221,6.0,9.0,25,0.00,,,-99.99,576.000000,,2013-06-15 00:01:00,
2013-06-14 18:11:00,72.0,35.0,-100.00,SW,227,7.0,10.0,26,0.00,,,-99.99,539.000000,,2013-06-15 00:11:00,
2013-06-14 18:22:00,72.0,40.0,-100.00,NW,315,6.0,9.0,31,0.00,,,-99.99,472.000000,,2013-06-15 00:22:00,
2013-06-14 18:33:00,72.0,40.0,-100.00,NW,315,6.0,9.0,31,0.00,,,-99.99,472.000000,,2013-06-15 00:33:00,
2013-06-14 18:43:00,71.0,37.0,-100.00,NNW,327,7.0,9.0,29,0.00,,,-99.99,409.000000,,2013-06-15 00:43:00,
2013-06-14 18:50:00,70.0,41.0,-100.00,NW,323,6.0,10.0,34,0.00,,,-99.99,316.000000,,2013-06-15 00:50:00,
2013-06-14 18:52:00,71.0,37.0,-100.00,NNW,327,7.0,9.0,29,0.00,,,-99.99,409.000000,,2013-06-15 00:52:00,
2013-06-14 19:01:00,71.0,40.0,-100.00,NW,309,7.0,10.0,33,0.00,,,-99.99,378.000000,,2013-06-15 01:01:00,
2013-06-14 19:11:00,70.0,41.0,-100.00,NW,323,6.0,10.0,34,0.00,,,-99.99,316.000000,,2013-06-15 01:11:00,
2013-06-14 19:22:00,70.0,41.0,-100.00,NW,323,6.0,10.0,34,0.00,,,-99.99,316.000000,,2013-06-15 01:22:00,
2013-06-14 19:33:00,70.0,41.0,-100.00,NW,323,6.0,10.0,34,0.00,,,-99.99,316.000000,,2013-06-15 01:33:00,
2013-06-14 19:42:00,70.0,41.0,-100.00,NW,323,6.0,10.0,34,0.00,,,-99.99,316.000000,,2013-06-15 01:42:00,
2013-06-14 21:24:00,58.0,40.0,-100.00,West,271,1.0,4.0,51,0.00,,,-99.99,2.000000,,2013-06-15 03:24:00,
2013-06-14 21:32:00,58.0,40.0,-100.00,West,271,1.0,4.0,51,0.00,,,-99.99,2.000000,,2013-06-15 03:32:00,
2013-06-14 21:44:00,56.0,41.0,-100.00,SSE,162,5.0,6.0,59,0.00,,,-99.99,0.000000,,2013-06-15 03:44:00,
2013-06-14 21:52:00,56.0,41.0,-100.00,SSE,162,5.0,6.0,59,0.00,,,-99.99,0.000000,,2013-06-15 03:52:00,
2013-06-14 22:01:00,56.0,40.0,-100.00,SSE,163,4.0,7.0,54,0.00,,,-99.99,0.000000,,2013-06-15 04:01:00,
2013-06-14 22:11:00,56.0,40.0,-100.00,SSE,163,4.0,7.0,54,0.00,,,-99.99,0.000000,,2013-06-15 04:11:00,
2013-06-14 22:22:00,55.0,40.0,-100.00,SSE,153,6.0,10.0,56,0.00,,,-99.99,0.000000,,2013-06-15 04:22:00,
2013-06-14 22:33:00,55.0,40.0,-100.00,SSE,153,6.0,10.0,56,0.00,,,-99.99,0.000000,,2013-06-15 04:33:00,
2013-06-14 22:43:00,55.0,38.0,-100.00,SSE,164,6.0,8.0,53,0.00,,,-99.99,0.000000,,2013-06-15 04:43:00,
2013-06-14 22:53:00,55.0,38.0,-100.00,SSE,164,6.0,8.0,53,0.00,,,-99.99,0.000000,,2013-06-15 04:53:00,
2013-06-14 23:02:00,54.0,38.0,-100.00,SSE,160,6.0,8.0,53,0.00,,,-99.99,0.000000,,2013-06-15 05:02:00,
2013-06-14 23:12:00,54.0,38.0,-100.00,SSE,161,6.0,8.0,56,0.00,,,-99.99,0.000000,,2013-06-15 05:12:00,
2013-06-14 23:22:00,54.0,38.0,-100.00,SSE,161,6.0,8.0,56,0.00,,,-99.99,0.000000,,2013-06-15 05:22:00,
2013-06-14 23:34:00,53.0,39.0,-100.00,SSE,167,6.0,8.0,59,0.00,,,-99.99,0.000000,,2013-06-15 05:34:00,
2013-06-14 23:42:00,53.0,38.0,-100.00,South,175,6.0,7.0,55,0.00,,,-99.99,0.000000,,2013-06-15 05:42:00,
2013-06-14 23:52:00,53.0,38.0,-100.00,South,175,6.0,7.0,55,0.00,,,-99.99,0.000000,,2013-06-15 05:52:00,